www.pogodaiklimat.ru

Погода и климат >> Архив погоды >> Россия >> Якутия >> Покровск


ПОГОДА в Покровске

  • Прогноз погоды в Покровске
  • Монитор погоды в Покровске
  • Климат города

АРХИВ ПОГОДЫ в Покровске

Время (UTC), дата Ветер
(напр.,м/с)
 
Видим.   Явления Облачность Т
(С)
Тd
(С)
f
(%)
Тe
(С)
Тes
(С)
Комфортность P
(гПа)
Po
(гПа)
Тmin
(С)
Tmax
(С)
R
(мм)
R24
(мм)
S
(см)
15 17.06 ЮВ 1 50 км 3/3 600 м
[Cu med, cong Ci fib]
+13.9 +7.4 65 +14 +14 1005.8 991.6
18 17.06 ЮЗ 2 50 км 3/3 600 м
[Sc Ci fib]
+7.5 +5.3 86 +5 +5 1006.9 992.3
21 17.06 В 1 50 км 4/3 600 м
[Sc Ci fib]
+15.0 +9.6 70 +16 +17 1007.9 993.6
00 18.06 ЮВ 1 50 км 3/0
[Ci fib]
+23.0 +11.4 48 +25 +35 комфорт 1008.3 993.9 +7.2
03 18.06 В 2 50 км 4/3 1000 м
[Cu med, cong Ci fib]
+26.2 +9.6 35 +27 +36 жарко 1007.7 994.0
06 18.06 В 4 50 км 4/3 1000 м
[Cu med, cong Ci fib]
+27.2 +6.9 28 +27 +32 жарко 1007.3 993.6
09 18.06 СВ 3 50 км ясно +27.5 +3.6 22 +26 +29 жарко 1006.9 993.2
12 18.06 СВ 2 50 км 1/0
[Ci fib]
+23.4 +10.4 44 +25 +25 комфорт 1007.7 993.8 +28.1
15 18.06 ЮЗ 2 50 км 1/1 1000 м
[Sc]
+12.5 +9.4 81 +12 +12 1008.8 994.4
18 18.06 З 2 50 км 3/3 1000 м
[Sc Ci fib]
+8.2 +6.2 87 +6 +6 1009.6 995.0
21 18.06 Ю 1 50 км 3/1 600 м
[Sc Ci fib]
+14.7 +9.5 71 +15 +17 1009.7 995.4
00 19.06 В 2 50 км 1/1 1000 м
[Sc]
+19.6 +11.7 60 +22 +29 комфорт 1010.0 996.0 +7.7
03 19.06 ЮВ 2 50 км 3/3 600 м
[Cu med, cong]
+24.8 +13.4 49 +27 +37 жарко 1009.4 995.6
06 19.06 Ю 3 50 км 4/4 600 м
[Cu med, cong]
+26.6 +8.4 32 +27 +32 жарко 1007.6 993.9
09 19.06 З 3 50 км {гроза, ливн. осадки} 4/4 600 м
[Cu med, cong]
+24.6 +13.7 51 +27 +29 жарко 1007.5 993.7
12 19.06 З 2 50 км 6/0
[Ci fib]
+19.7 +15.5 77 +22 +22 комфорт 1007.9 993.9 +28.6 0.0
15 19.06 СЗ 2 50 км 6/0
[Ac As]
+14.4 +11.6 83 +14 +14 1009.2 994.9
18 19.06 ЮЗ 2 50 км 5/0
[Ac As]
+9.9 +8.3 90 +8 +8 1009.8 995.3
21 19.06 З 2 50 км 6/0
[Ac As]
+12.0 +9.0 82 +11 +12 1010.2 995.8
00 20.06 Ю 3 50 км 10/0
[Ac trans Cs]
+17.8 +12.4 71 +18 +21 1009.4 995.3 +9.9
03 20.06 З 5 50 км 10/6 1000 м
[Sc Ac trans Ci fib]
+23.4 +9.2 40 +25 +26 комфорт 1008.1 994.2
06 20.06 СЗ 2 50 км 10/8 1000 м
[Sc Ci fib]
+23.8 +8.0 36 +24 +26 комфорт 1006.7 992.9
09 20.06 штиль 0 50 км 8/4 1000 м
[Sc Ac trans]
+24.0 +12.1 47 +26 +27 жарко 1005.0 991.3
12 20.06 З 2 50 км 10/8 600 м
[Sc Ci fib]
+23.6 +10.4 43 +25 +25 комфорт 1004.5 990.8 +25.9
15 20.06 ЮЗ 2 50 км 10/8 600 м
[Sc Ci fib]
+20.1 +11.0 56 +22 +22 комфорт 1003.8 989.9
18 20.06 З 3 50 км 8/0
[Ac trans]
+19.2 +11.6 61 +20 +20 1003.1 989.1
21 20.06 СЗ 4 50 км 8/0
[Ac trans]
+18.0 +13.0 73 +18 +19 1003.4 989.4
00 21.06 С 6
{11}
50 км 6/0
[Cc]
+21.2 +6.7 39 +22 +25 комфорт 1004.8 990.4 +18.0
03 21.06 В 5
{11}
50 км 4/0
[Ci sp]
+24.3 +4.5 28 +24 +31 комфорт 1005.2 991.5
06 21.06 С 3
{10}
50 км 3/0
[Ci fib]
+25.7 +2.1 22 +24 +33 комфорт 1004.7 991.0
09 21.06 С 4 50 км 3/0
[Ci fib]
+26.9 +0.1 17 +25 +27 комфорт 1004.0 990.4
12 21.06 З 1 50 км 10/3 1000 м
[Sc Ac trans Ci fib]
+22.8 +4.0 29 +25 +25 комфорт 1004.3 990.5 +27.2
15 21.06 З 2 50 км 5/4 1000 м
[Sc Ac trans Ci fib]
+13.7 +7.9 68 +13 +13 1004.8 990.5
18 21.06 З 3 50 км 10/8 1000 м
[Sc Ac trans Ci fib]
+12.3 +5.7 64 +11 +11 1004.7 990.4
21 21.06 ЮЗ 1 50 км 10/0
[Ac trans Ci fib]
+12.6 +7.3 70 +13 +14 1004.7 990.4
00 22.06 ЮЗ 2 50 км 10/0
[Ac trans Ci fib]
+20.9 +7.1 41 +23 +28 комфорт 1003.9 990.0 +12.3
03 22.06 ЮЗ 3 50 км 10/8 600 м
[Sc Ci fib]
+20.6 +12.5 60 +23 +25 комфорт 1002.8 988.8
06 22.06 ЮВ 1 50 км 4/0
[Ci fib]
+27.8 +15.4 47 +31 +42 душно 1001.2 987.6
09 22.06 З 3 50 км в посл. час гроза {ливн. осадки} 5/0
[Ac trans]
+21.0 +16.0 73 +25 +27 комфорт 1000.8 987.0
12 22.06 В 1 50 км {гроза, ливн. осадки} 6/0
[Ac trans]
+22.4 +16.9 71 +27 +27 душно 1001.0 987.2 +30.1 2
15 22.06 З 1 50 км ясно +15.8 +14.2 90 +16 +16 1001.8 987.7
18 22.06 З 1 50 км ясно +14.0 +13.4 96 +14 +14 1002.1 987.9
21 22.06 В 1 50 км ясно +16.3 +14.1 87 +17 +19 1002.3 987.9
00 23.06 ЮЗ 3 50 км ясно +22.4 +14.6 61 +26 +33 жарко 1001.6 987.8 +14.0
03 23.06 ЮЗ 4 50 км ясно +27.2 +14.8 47 +30 +39 душно 1001.3 987.7
06 23.06 Ю 3 50 км ясно +32.4 +12.5 30 +33 +42 жарко 1000.0 986.7
09 23.06 ЮЗ 3 20 км ясно +30.8 +15.5 40 +33 +36 душно 999.2 985.8
12 23.06 З 1 20 км ясно +26.7 +15.6 51 +30 +30 душно 999.5 985.9 +33.0
15 23.06 З 1 10 км дым ясно +18.8 +17.0 89 +21 +21 комфорт 999.9 985.9
18 23.06 ЮЗ 1 10 км дым ясно +15.3 +13.7 90 +16 +16 999.9 985.9
21 23.06 З 2 10 км дым ясно +15.5 +13.9 90 +15 +17 1000.6 986.6
00 24.06 ЮЗ 3 10 км дым 4/0
[Ci fib]
+21.2 +16.2 73 +25 +31 комфорт 1001.2 987.4 +14.8
03 24.06 ЮЗ 6 10 км дым 4/3 600 м
[Cu med, cong Ci fib]
+22.6 +16.0 66 +27 +31 душно 1001.4 987.6
06 24.06 ЮЗ 3
{12}
10 км дым 8/6 600 м
[Cu med, cong Ci fib]
+28.7 +17.2 50 +33 +36 очень
душно
1001.0 987.5
09 24.06 СВ 3 50 км 8/4 600 м
[Cb calv Ci fib]
+27.1 +14.9 47 +30 +31 душно 1002.2 988.6
12 24.06 С 4 50 км 9/5 600 м
[Sc Ac trans Ci fib]
+24.4 +11.8 45 +26 +26 жарко 1004.5 990.8 +31.2

 

Местоположение метеостанции Покровск (Якутия, Россия): широта 61.48 долгота 129.10 высота над уровнем моря 121 м.

В архиве по умолчанию представлена погода в Покровске за последнюю неделю. Архивные данные за месяц целиком и за предыдущие месяцы, начиная с января 2011 года, Вы можете получить, выбрав интересующий диапазон дат из раскрывающегося списка и нажав кнопку "Ввод!".

Внимание! Время в таблицах - всемирное. Для получения местного времени необходимо прибавить поправку, которая в Покровске равна 9 ч.

Смотрите также архив погоды в соседних городах и на ближайших метеорологических станциях:

Погода в Якутске (Якутия, Россия) (64 км)
Погода в Тегюльте (Якутия, Россия) (122 км)
Погода в Намцах (Якутия, Россия) (140 км)
Погода в Бердигестяхе (Якутия, Россия) (141 км)
Погода в Амге (Якутия, Россия) (163 км)
Погода в Чурапче (Якутия, Россия) (194 км)
Погода в Исите (Якутия, Россия) (217 км)
Погода в Батамае (Якутия, Россия) (227 км)
Погода в Буяге (Якутия, Россия) (232 км)
Погода в Тонгулахе (Якутия, Россия) (247 км)

Пояснения к столбцам:

Ветер - указаны скорость ветра в м/с - средняя за 10 мин, порывы в срок и между сроками (в фигурных скобках) и направление, откуда дует ветер: С - северный, СВ - северо-восточный, В - восточный, ЮВ - юго-восточный, Ю - южный, ЮЗ - юго-западный, З - западный, СЗ - северо-западный.
Видимость - горизонтальная дальность видимости в метрах или километрах. При видимости от 1 до 10 км при отсутствии осадков обычно наблюдается дымка, при ухудшении видимости до 1 км и менее - туман. В сухую погоду видимость может ухудшаться дымом, пылью или мглою.
Явления - указаны атмосферные явления, наблюдавшиеся в срок или в последний час перед сроком; фигурными скобками обозначены явления, наблюдавшиеся между сроками (за 1-3 часа до срока); квадратными скобками обозначены град или гололедные отложения с указанием их диаметра в мм.
Облачность - указаны через наклонную черту общая и нижняя облачность в баллах и высота нижней границы облаков в метрах; квадратными скобками обозначены формы облаков: Ci - перистые, Cs - перисто-слоистые, Cc - перисто-кучевые, Ac - высококучевые, As - высокослоистые, Sc - слоисто-кучевые, Ns - слоисто-дождевые, Cu - кучевые, Cb - кучево-дождевые. Подробнее классификацию облаков см. в Атласе облаков (PDF).
T - Температура воздуха - температура, измеренная на высоте 2 м над землей.
Td - Температура точки росы - температура, при понижении до которой содержащийся в воздухе водяной пар достигнет насыщения.
f - Относительная влажность воздуха - влажноcть воздуха, измеренная на высоте 2 м над землей.
Te - Эффективная температура - температура, которую ощущает одетый по сезону человек в тени. Характеристика душности погоды. При расчете учитывается влияние влажности воздуха и скорости ветра на теплоощущения человека.
Tes - Эффективная температура на солнце - температура, которую ощущает человек, с поправкой на солнечный нагрев. Характеристика знойности погоды. Зависит от высоты солнца над горизонтом, облачности и скорости ветра. Ночью, в пасмурную погоду, а также при ветре 12 м/с и более поправка равна нулю.
P - Атмосферное давление - приведенное к уровню моря атмосферное давление.
Po - Атмосферное давление - измеренное на уровне метеостанции атмосферное давление.
Tmin - Минимальная температура - минимум температуры воздуха на высоте 2 м над землей.
Tmax - Максимальная температура - максимум температуры воздуха на высоте 2 м над землей.
R - Количество осадков - Количество выпавших осадков за период времени, мм. При наведении курсора мыши на число - период времени, за который выпало указанное количество осадков.
R24 - Количество осадков - Количество выпавших осадков за 24 часа, мм.
S - Снежный покров - Высота снежного покрова, см. При наведении курсора мыши на число - состояние снежного покрова и степень покрытия местности в баллах.